Weather in Bonao

Dominican Republic     18°56′14″N   70°23′17″W
temp.,
°C
wind,
m/s
gust,
m/s
humid.,
%
clouds,
%
prec.,
mm/h
press.,
hPa
HPBL,
m
13 may, thu
thu1323:00+20e129595 0.2 1020219
02:00+19se139482 0.4 1019222
05:00+17s129813 0.1 101942
08:00+20se23790 0.1 1019352
11:00+27e34430 0.0 10181219
14:00+31e43330 0.0 10151702
17:00+29e33377 0.0 10131901
20:00+20sse22865 0.0 101741
14 may, fri
fri1423:00+18s229288 0.0 101839
02:00+17ssw228421 0.0 101738
05:00+17ssw22805 0.0 101827
08:00+22se23684 0.0 1018438
11:00+28e33440 0.0 10171490
14:00+31e43326 0.0 10142189
17:00+29ene433950 0.0 10131962
20:00+20sse11795 0.0 101626
15 may, sat
sat1523:00+19ssw11820 0.0 101820
02:00+18ssw21815 0.0 101725
05:00+17ssw22835 0.0 101724
08:00+23ese12620 0.0 1018421
11:00+28e33410 0.0 10161568
14:00+31ene443137 0.0 10142562
17:00+25e2461100 0.1 1014311
20:00+20sw119284 5.8 101620
16 may, sun
sun1623:00+19s119548 1.1 101820
02:00+18ssw21949 1.1 101624
05:00+17ssw21935 0.0 101725
08:00+21se12784 0.0 1018298
11:00+28e34414 0.0 10171543
14:00+30e443776 0.0 10152545
17:00+21ne1384100 1.8 1016127
20:00+19wsw0196100 4.9 101828
17 may, mon
mon1723:00+19s1196100 0.4 101914
02:00+18ssw219590 1.4 101732
05:00+17ssw229174 0.0 101732
08:00+20se137359 0.0 1018208
11:00+27e355122 0.0 10171717
14:00+29e343883 0.1 10152323
17:00+25e245475 0.2 1015640
20:00+21w017599 0.3 101813